Location: Harbor View
(36.2448°N, 86.5797°W)
Time: 09:22:00
(UTC+00:00)

H-2A R/B - Pass Details

Date: 29 October 2020
Orbit: 577 x 656 km, 98.5° (Epoch: 04 December)

Event Time Altitude Azimuth Distance (km) Brightness Sun altitude
Rises 23:31:09 0° 357° (N) 2,821 5.4 -8.4°
Reaches altitude 10° 23:33:39 10° 343° (NNW) 1,907 4.7 -8.9°
Maximum altitude 23:36:53 23° 291° (WNW) 1,261 4.5 -9.5°
Drops below altitude 10° 23:40:05 10° 239° (WSW) 1,884 5.8 -10.1°
Sets 23:42:33 0° 225° (SW) 2,777 6.4 -10.6°
